User: anonymous   Login
Location: Unspecified
(0.0000°N, 0.0000°E)
Time: 01:55:37
(UTC+00:00)
Language:

Optus B1 - Orbit

View from above orbital plane
View from above orbital plane
View from above satellite
View from above satellite

Ground track
Ground track

The orbit data is extracted from the following two-line orbital elements,

1 22087U 92054A   17177.21187538 -.00000252 +00000-0 +00000-0 0  9997
2 22087 008.7020 045.8482 0008051 048.4445 241.8482 00.99208207102180
Epoch (UTC): 26 June 2017 05:05:06
Eccentricity: 0.0008051
inclination: 8.7020°
perigee height: 36053 km
apogee height: 36121 km
right ascension of ascending node: 45.8482°
argument of perigee: 48.4445°
revolutions per day: 0.99208207
mean anomaly at epoch: 241.8482°
orbit number at epoch: 10218

The dashed part of the orbit path shows where the satellite is in the earth's shadow,  

DLR